Weather History for Spirit of St Louis, MO

Change the Weather History Date:

Saturday, July 13, 2013

  Actual Average Record
Temperature  
Mean Temperature 74 °F -  
Max Temperature 86 °F 86 °F 96 °F (1997)
Min Temperature 63 °F 65 °F 57 °F (2001)
Cooling Degree Days 8    
Growing Degree Days 24 (Base 50)    
Moisture  
Dew Point 60 °F    
Average Humidity 61    
Maximum Humidity 81    
Minimum Humidity 41    
Precipitation  
Precipitation 0.00 in - - ()
Sea Level Pressure  
Sea Level Pressure 30.04 in    
Wind  
Wind Speed 2 mph (NE)    
Max Wind Speed 10 mph    
Max Gust Speed 17 mph    
Visibility 10 miles    
Events      
Averages and records for this station are not official NWS values.
T = Trace of Precipitation, MM = Missing Value Source: NWS Daily Summary

Daily Weather History Graph

Daily Weather History Graph

Search for Another Location

Airport:

Trip Planner

Search our weather history database for the weather conditions in past years. The results will help you decide how hot, cold, wet, or windy it might be!

Date:

Astronomy

Jul. 13, 2013 Rise Set
Actual Time 5:49 AM CDT 8:27 PM CDT
Civil Twilight 5:17 AM CDT 8:58 PM CDT
Nautical Twilight 4:39 AM CDT 9:37 PM CDT
Astronomical Twilight 3:55 AM CDT 10:20 PM CDT
Moon 11:01 AM CDT (7/13) 11:12 PM CDT (7/13)
Length of Visible Light 15h 40m
Length of Day
14h 38m
Waxing Crescent, 26% of the Moon is Illuminated
Jul 13
Waxing Crescent
Jul 15
First Quarter
Jul 22
Full
Jul 29
Last Quarter
Aug 6
New

Hourly Weather History & Observations

Time (CDT) Temp. Heat Index Dew Point Humidity Pressure Visibility Wind Dir Wind Speed Gust Speed Precip Events Conditions
12:54 AM 68.0 °F - 59.0 °F 73% 30.05 in 10.0 mi Calm Calm - N/A   Clear
1:54 AM 68.0 °F - 57.9 °F 70% 30.04 in 10.0 mi Calm Calm - N/A   Clear
2:54 AM 66.0 °F - 57.0 °F 73% 30.05 in 10.0 mi Calm Calm - N/A   Clear
3:54 AM 64.9 °F - 57.0 °F 75% 30.05 in 10.0 mi Calm Calm - N/A   Clear
4:54 AM 63.0 °F - 55.9 °F 78% 30.05 in 9.0 mi Calm Calm - N/A   Clear
5:54 AM 64.0 °F - 57.0 °F 78% 30.05 in 6.0 mi Calm Calm - N/A   Haze
6:54 AM 66.9 °F - 59.0 °F 76% 30.06 in 9.0 mi Calm Calm - N/A   Clear
7:54 AM 73.0 °F - 63.0 °F 71% 30.07 in 10.0 mi Calm Calm - N/A   Partly Cloudy
8:54 AM 79.0 °F - 63.0 °F 58% 30.07 in 10.0 mi Calm Calm - N/A   Partly Cloudy
9:54 AM 78.1 °F - 61.0 °F 56% 30.08 in 10.0 mi Calm Calm - N/A   Clear
10:54 AM 80.1 °F 80.9 °F 60.1 °F 50% 30.07 in 10.0 mi NE 5.8 mph - N/A   Scattered Clouds
11:54 AM 82.0 °F 82.7 °F 61.0 °F 49% 30.06 in 10.0 mi NNW 4.6 mph - N/A   Scattered Clouds
12:54 PM 82.9 °F 83.3 °F 61.0 °F 47% 30.05 in 10.0 mi NNE 6.9 mph - N/A   Scattered Clouds
1:54 PM 84.0 °F 83.5 °F 57.9 °F 41% 30.04 in 10.0 mi East 8.1 mph - N/A   Clear
2:54 PM 84.0 °F 84.4 °F 61.0 °F 46% 30.02 in 10.0 mi NE 9.2 mph 17.3 mph N/A   Scattered Clouds
3:54 PM 84.9 °F 84.8 °F 60.1 °F 43% 30.02 in 10.0 mi ENE 9.2 mph 16.1 mph N/A   Scattered Clouds
4:54 PM 82.9 °F 82.8 °F 59.0 °F 44% 30.01 in 10.0 mi NNE 8.1 mph - N/A   Scattered Clouds
5:54 PM 84.0 °F 83.8 °F 59.0 °F 43% 30.01 in 10.0 mi NE 10.4 mph - N/A   Partly Cloudy
6:54 PM 81.0 °F 81.6 °F 60.1 °F 49% 30.00 in 10.0 mi ENE 8.1 mph - N/A   Partly Cloudy
7:54 PM 78.1 °F - 63.0 °F 60% 30.00 in 10.0 mi ENE 5.8 mph - N/A   Partly Cloudy
8:54 PM 75.9 °F - 61.0 °F 60% 30.01 in 10.0 mi East 4.6 mph - N/A   Partly Cloudy
9:54 PM 72.0 °F - 63.0 °F 73% 30.03 in 10.0 mi Calm Calm - N/A   Clear
10:54 PM 70.0 °F - 63.0 °F 78% 30.04 in 10.0 mi Calm Calm - N/A   Clear
11:54 PM 69.1 °F - 63.0 °F 81% 30.03 in 10.0 mi Calm Calm - N/A   Clear